This demonstration page uses our WeatherBlox Daily Observations layout. Learn more.

Left ArrowRight Arrow

38.83388, -104.82136

Hourly Observations for April 30, 2022

Temp ( °F °C ) Dew Point ( °F °C ) Humidity (%) Winds ( mph kmh ) Pressure ( in mb ) Visibility ( mi km ) Precip ( " mm )
12:58 am 00:58 Clear 44 6.8 3 -15.9 18 18 NW 5 7 29.59 1002 10 16 0.00 0.00
1:58 am 01:58 Clear 46 7.8 -1 -18.1 14 14 NNW 16 26 29.59 1002 10 16 0.00 0.00
2:58 am 02:58 Clear 45 7.1 1 -17.1 16 16 WNW 16 26 29.59 1002 10 16 0.00 0.00
3:09 am 03:09 Clear 45 7 0 -18 15 15 WNW 13 20 29.60 1002 10 16 0.00 0.00
3:58 am 03:58 Clear 47 8.5 -7 -21.4 10 10 NW 13 20 29.85 1011 10 16 0.00 0.00
4:58 am 04:58 Clear 42 5.6 2 -16.9 18 18 SW 3 6 29.62 1003 10 16 0.00 0.00
5:58 am 05:58 Clear 43 5.9 2 -16.6 18 18 S 9 15 29.91 1013 10 16 0.00 0.00
6:59 am 06:59 undefined N/A N/A N/A undefined N/A N/A 10 16 0.00 0.00
7:58 am 07:58 Sunny 44 6.7 10 -12 25 25 ESE 3 6 29.76 1008 10 16 0.00 0.00
8:58 am 08:58 Sunny 49 9.7 10 -12.2 20 20 SSE 10 17 29.78 1009 10 16 0.00 0.00
9:58 am 09:58 Sunny 50 9.9 8 -13.3 18 18 SE 13 20 29.79 1009 10 16 0.00 0.00
10:58 am 10:58 Sunny 53 11.5 10 -12 18 18 SSE 14 22 29.78 1009 10 16 0.00 0.00
11:58 am 11:58 Sunny 55 13 13 -10.8 18 18 SE 14 22 29.90 1013 10 16 0.00 0.00
12:24 pm 12:24 Sunny 55 13 12 -11 18 18 SSE 15 24 29.81 1010 10 16 0.00 0.00
12:53 pm 12:53 Sunny 57 14 14 -10 18 18 ESE 14 22 29.80 1009 10 16 0.00 0.00
12:58 pm 12:58 Sunny 57 14 13 -10.7 17 17 SE 14 22 29.80 1009 10 16 0.00 0.00
1:23 pm 13:23 Sunny 57 14 14 -10 18 18 S 17 28 29.80 1009 10 16 0.00 0.00
1:46 pm 13:46 Sunny 57 14 14 -10 18 18 SSE 15 24 29.79 1009 10 16 0.00 0.00
1:58 pm 13:58 Sunny 58 14.5 15 -9.6 18 18 SE 13 20 29.80 1009 10 16 0.00 0.00
2:06 pm 14:06 Sunny 57 14 14 -10 18 18 S 15 24 29.80 1009 10 16 0.00 0.00
2:27 pm 14:27 Sunny 57 14 12 -11 17 17 S 13 20 29.80 1009 10 16 0.00 0.00
2:39 pm 14:39 Sunny 57 14 12 -11 17 17 S 17 28 29.80 1009 10 16 0.00 0.00
2:58 pm 14:58 Sunny 59 15.1 11 -11.4 15 15 SE 15 24 29.80 1009 10 16 0.00 0.00
3:56 pm 15:56 Sunny 58 14.5 12 -11.1 16 16 SSE 10 17 29.77 1008 10 16 0.00 0.00
4:58 pm 16:58 Sunny 58 14.6 14 -10.2 17 17 ESE 16 26 29.79 1009 10 16 0.00 0.00
5:07 pm 17:07 Sunny 57 14 14 -10 18 18 SSE 16 26 29.79 1009 10 16 0.00 0.00
5:58 pm 17:58 Sunny 55 13 14 -10.1 19 19 S 12 19 29.74 1007 10 16 0.00 0.00
6:58 pm 18:58 Sunny 54 12.4 14 -10 20 20 S 10 17 29.84 1010 10 16 0.00 0.00
7:58 pm 19:58 Clear 53 11.5 13 -10.7 20 20 S 12 19 29.74 1007 10 16 0.00 0.00
8:58 pm 20:58 Clear 52 10.9 12 -11.2 20 20 S 10 17 29.73 1007 10 16 0.00 0.00
9:58 pm 21:58 Clear 51 10.3 12 -11.1 21 21 S 15 24 29.74 1007 10 16 0.00 0.00
10:58 pm 22:58 Clear 49 9.5 16 -9.1 26 26 S 10 17 29.72 1006 10 16 0.00 0.00
11:58 pm 23:58 Clear 47 8.4 16 -9.1 28 28 SSE 12 19 29.72 1006 10 16 0.00 0.00

Powered by AerisWeather